Home > Weather > Truro > Past weeks

Flag for United Kingdom Past Weather in Truro, England, United Kingdom — Yesterday and Last 2 Weeks

Now
55 °F

Sunny.


Feels Like: 54 °F
Forecast: 54 / 62 °F
Wind: 7 mph from Northwest

Location: Culdrose

Current Time: May 30, 2016 at 11:16:50 PM

Latest Report: May 30, 2016 at 9:50 PM


Visibility: N/A

Pressure: 30.12 "Hg

Humidity: 82%

Dew Point: 50 °F

Location of TruroLocation

Past Weather in Truro — Graph

°F

Truro Temperature Yesterday

Maximum temperature yesterday: 66 °F (at 3:50 PM)
Minimum temperature yesterday: 52 °F (at 1:50 AM)
Average temperature yesterday: 59 °F

High & Low Weather Summary for the Past Weeks

 TemperatureHumidityPressure
High66 °F (May 29, 3:50 PM)100% (May 16, 3:50 AM)30.24 "Hg (May 16, 3:50 AM)
Low41 °F (May 24, 2:50 AM)48% (May 23, 4:50 PM)29.62 "Hg (May 18, 5:50 AM)
Average54 °F85%29.97 "Hg
* Reported May 15 9:50 PM — May 30 9:50 PM, Truro, Weather by CustomWeather, © 2016

Note: Actual official high and low records may vary slightly from our data, if they occured in-between our weather recording intervals... More about our weather records

Advertising

Truro Weather History for the Previous 24 Hours

Scroll right to see more
 ConditionsComfort  
Time TempWeatherWind HumidityBarometerVisibility
9:50 PM
Mon, May 30
55 °FSunny.7 mph82%30.12 "HgN/A
8:50 PM57 °FSunny.13 mph77%30.12 "HgN/A
7:50 PM59 °FSunny.20 mph72%30.09 "HgN/A
6:50 PM61 °FSunny.20 mph72%30.09 "HgN/A
5:50 PM63 °FSunny.21 mph64%30.09 "HgN/A
4:50 PM66 °FSunny.17 mph60%30.09 "HgN/A
3:50 PM64 °FSunny.17 mph60%30.09 "HgN/A
2:50 PM66 °FSunny.21 mph60%30.07 "HgN/A
1:50 PM66 °FSunny.20 mph56%30.07 "HgN/A
12:50 PM64 °FSunny.17 mph60%30.07 "HgN/A
11:50 AM66 °FSunny.21 mph49%30.07 "HgN/A
10:50 AM64 °FScattered clouds.16 mph60%30.07 "HgN/A
9:50 AM64 °FSunny.13 mph60%30.07 "HgN/A
8:50 AM61 °FPassing clouds.12 mph72%30.07 "HgN/A
7:50 AM59 °FSunny.7 mph82%30.04 "HgN/A
6:50 AM55 °FSunny.8 mph88%30.04 "HgN/A
5:50 AM52 °FClear.8 mph94%30.01 "Hg4 mi
4:50 AM52 °FClear.8 mph94%30.01 "Hg5 mi
3:50 AM54 °FClear.12 mph94%30.01 "Hg5 mi
2:50 AM54 °FClear.12 mph94%30.01 "Hg6 mi
1:50 AM54 °FPassing clouds.5 mph94%30.01 "Hg4 mi
12:50 AM55 °FClear.13 mph88%30.01 "Hg5 mi
11:50 PM
Sun, May 29
55 °FClear.15 mph88%30.01 "Hg6 mi
Weather by CustomWeather, © 2016

See weather overviewHow to use our weather pages